星链-31657 (STARLINK-31657 )

导读

STARLINK-31657是美国太空探索技术公司SpaceX星链计划中的一颗卫星,于北京时间2024年4月13日8时发射入轨。星链计划旨在构建全球卫星互联网星座,为全球各地提供高速低延迟的宽带网络服务,该卫星的成功发射进一步扩充了星链星座的卫星规模,推进了星座组网进程。

Basic Information
目录编号:
59487
目录名称:
STARLINK-31657
国际标识:
2024-071D
轨道中心:
EARTH
卫星名称:
星链-31657
卫星全名:
星链-31657 (STARLINK-31657 )
卫星状态:
在轨 (已飞行792 天)
发射日期:
2024-04-13 UTC
国别 :
美国 (US)
星等 :
--
Orbit Information
数据来源 国际轨道数据 AOE轨道数据
星历时间 2026-06-14T13:53:35+0800
7小时前
查看轨道信息
2026-06-14T02:00:00+0800
19小时前
查看轨道信息
半长轴 6861.195km 6861.194km
偏心率 0.0000929 0.000125
轨道倾角 42.995° 42.999°
近地点辐角 251.598° 265.438°
升交点赤经 154.352° 157.158°
平近点角 108.477° 246.277°
近地点 482.42km 482.199km
远地点 483.696km 483.915km
周期 94.267分钟 94.267分钟
每日圈数 15.275772 15.275774
Detailed Information
固有亮度:
5
最大亮度:
1.5
卫星平台:
Starlink v2.0 mini
覆盖范围:
全球
运营商:
太空探索技术公司
运营商所在国:
美国
制造商(研发单位):
太空探索技术公司
制造商所在国:
美国
使用方式:
暂无
Satellite Introduction
星链(Starlink)计划是由太空探索技术公司(SpaceX)提出的一个巨型低轨卫星互联网星座项目,计划在2019年至2024年间在太空搭建由约1.2万颗卫星组成的“星链”网络,其中1584颗将部署在地球上空550千米处的近地轨道,并从2020年开始工作。该卫星仍在工作。
2D Orbit Map
3D Orbit Map
Orbit Altitude Analysis Chart
Orbit Inclination Analysis Chart
Orbit Comprehensive Analysis Chart
View Comprehensive Chart